Dewpoint
17 16 15 15 13 13 16 15 14 13 12 12 10 11 12 13 14 14 14 13 14 16 17 33 45 47 40 26 21 23 30 58 65 65 64 63 63 63 64 64 64 64 64 63
23 16 16 14 12 11 11 11 12 13 14 12 13 14 15 15 15 15 15 16 17 36 45 46 45 46 47 49 48 39 34 53 64 64 64 64 63 64 64 64 64 64 64 63
18 21 23 18 18 17 16 14 15 16 17 16 15 14 14 17 16 18 27 35 45 45 44 44 44 45 46 47 47 48 50 52 63 64 64 63 63 63 63 63 63 63 64 63
14 16 17 18 17 17 14 18 17 18 17 14 16 12 14 16 17 19 42 44 42 41 42 43 42 43 43 45 45 47 49 52 60 64 63 61 61 60 61 62 62 63 64 63
12 17 16 16 15 17 15 17 17 16 16 17 16 15 15 15 14 36 42 40 40 39 39 39 40 40 41 42 43 45 46 49 55 63 63 62 61 60 60 62 62 62 62 63
17 20 19 18 18 18 19 17 17 18 18 14 14 14 11 13 31 38 41 41 39 37 36 36 37 38 38 39 41 44 45 47 52 63 63 62 60 60 60 61 61 61 61 61
19 16 20 23 21 21 17 17 13 11 13 11 19 15 14 30 39 40 40 39 37 36 34 34 34 34 35 36 39 41 43 45 49 61 63 62 61 60 60 60 60 60 60 60
10 12 20 20 16 10 13 19 16 11 12 15 18 13 17 38 39 38 39 38 36 34 33 33 33 33 33 35 37 40 41 44 48 60 62 62 62 60 59 60 60 59 59 60
19 18 21 18 16 12 14 20 24 21 21 19 18 19 35 38 38 39 38 36 34 33 32 31 32 32 33 34 36 38 41 43 48 62 60 62 60 59 59 59 59 59 58 58
22 9 21 18 13 15 13 11 10 22 15 12 14 18 19 33 35 35 35 34 33 31 31 30 30 31 32 34 35 37 40 42 46 52 61 60 59 59 58 58 58 58 58 58
19 15 18 11 10 8 11 8 14 26 24 17 15 19 35 34 35 35 34 33 32 30 29 29 29 30 31 33 34 35 38 41 44 47 55 59 58 58 58 58 58 58 57 57
25 21 14 9 14 18 17 23 25 16 13 21 21 18 36 36 35 34 33 32 29 28 28 28 28 29 30 31 32 33 36 38 41 44 50 58 58 58 57 57 57 57 56 56
22 17 10 7 15 18 17 17 21 23 23 17 16 16 36 36 34 32 30 30 29 27 27 28 28 29 29 31 32 32 34 37 39 41 49 56 57 57 57 57 56 57 56 56
23 18 12 4 9 19 16 18 19 18 15 12 16 17 19 31 31 30 29 30 29 26 26 27 27 28 28 30 31 31 33 35 37 37 38 41 48 56 57 57 57 56 56 55
22 16 20 20 20 21 20 20 19 17 15 15 13 14 18 31 29 28 28 28 26 25 25 26 26 27 27 28 29 30 31 33 35 35 35 35 37 42 49 52 55 54 54 53
26 14 21 17 20 21 16 13 15 16 17 17 18 18 30 30 28 26 26 26 24 24 24 25 25 26 26 27 27 28 29 31 33 34 34 34 33 34 36 40 42 42 41 41
20 18 17 11 11 11 7 13 18 18 24 19 18 22 29 26 24 24 24 24 23 24 25 25 25 26 26 27 28 27 28 29 30 31 32 33 33 31 32 33 35 35 35 35
20 18 15 13 12 3 7 29 29 27 27 29 31 30 29 25 25 25 24 23 23 24 24 25 26 26 26 27 26 27 27 27 27 28 30 31 32 32 31 31 30 31 31 31
19 17 14 10 10 7 15 25 25 25 22 27 28 26 25 24 23 23 26 25 24 24 25 25 27 26 26 25 26 26 25 25 25 25 27 28 30 30 30 29 29 29 28 29
20 19 13 14 10 11 21 26 29 30 20 26 26 28 25 26 22 20 25 25 25 25 25 25 26 26 25 25 25 23 23 23 23 24 25 27 27 27 27 28 27 28 28 28
19 20 15 12 14 16 24 27 31 21 19 25 25 26 29 21 23 23 25 24 24 24 25 25 25 25 26 25 24 22 21 21 23 25 25 25 26 26 27 26 27 27 27 26
20 17 16 18 15 14 26 27 22 25 26 25 24 24 22 22 22 22 22 22 22 22 23 23 23 23 25 26 23 22 21 23 23 23 23 23 24 24 25 25 25 26 26 25
19 24 21 22 20 26 27 26 29 29 26 25 24 24 23 21 21 21 20 21 21 21 22 23 22 22 23 24 25 22 22 21 21 21 22 23 23 23 23 23 23 23 24 24
25 28 23 24 24 25 27 27 27 27 26 26 26 24 22 20 21 20 20 21 20 21 20 21 20 20 20 22 23 24 25 20 19 19 20 20 22 22 22 22 23 22 22 22
24 26 25 23 25 25 26 26 26 25 25 24 24 23 22 21 20 20 19 19 20 19 20 19 19 19 19 20 20 22 23 24 18 16 18 18 19 21 22 23 24 23 25 25
26 23 22 19 26 24 24 26 26 24 23 23 21 21 21 21 20 18 18 18 18 18 18 18 17 18 18 18 19 20 21 22 21 17 14 16 17 17 18 18 18 22 24 23
Wind_Speed
4 7 14 18 11 6 6 9 14 11 21 11 25 26 19 19 12 19 22 20 20 23 18 18 17 19 21 19 19 21 23 25 22 23 23 22 24 22 20 18 20 21 19 18
3 12 17 9 7 9 10 12 16 12 17 7 20 32 22 19 17 13 16 20 18 11 15 17 21 21 17 17 20 18 18 21 23 23 24 20 23 20 21 17 17 21 22 22
17 8 2 12 12 12 14 11 13 15 13 8 15 22 10 6 7 9 9 8 11 13 17 19 21 23 21 18 17 17 18 19 23 25 21 9 12 8 11 16 18 19 22 23
12 16 18 12 13 14 17 14 18 15 7 9 2 20 13 5 1 6 9 11 12 15 15 15 20 21 22 21 16 16 18 18 22 24 24 27 25 23 19 23 22 21 22 23
7 5 8 8 8 8 8 10 12 11 10 9 8 6 13 18 8 3 5 9 11 14 16 19 21 23 24 21 20 17 20 20 20 25 28 30 28 24 15 18 24 22 20 22
8 1 2 4 1 2 8 3 8 1 4 12 13 14 25 9 2 3 4 8 12 14 17 17 18 21 24 24 22 20 21 23 21 24 28 29 32 24 19 20 22 21 20 19
1 1 1 5 2 3 11 2 3 4 6 12 7 9 21 6 4 2 3 9 14 16 18 21 24 26 27 29 26 22 22 26 24 23 27 26 23 22 25 25 24 22 21 19
5 4 2 5 5 2 3 1 3 7 4 7 6 9 6 3 3 7 7 8 12 16 15 20 21 24 25 26 26 26 29 27 27 19 24 21 20 17 17 20 17 18 20 21
5 3 2 6 1 1 3 1 1 5 5 9 7 6 3 4 5 1 8 14 16 17 20 20 22 22 26 27 28 25 27 26 27 17 18 16 15 18 19 22 20 19 18 16
3 3 4 2 1 9 6 5 3 1 6 10 9 7 7 6 12 14 13 14 16 18 21 24 22 24 24 24 25 27 26 28 26 19 10 13 15 14 14 15 18 17 15 17
3 3 2 3 1 4 4 0 1 2 4 6 8 4 5 9 8 8 10 11 13 17 21 22 24 24 24 24 24 24 23 23 22 21 11 13 13 15 14 15 14 16 16 16
2 4 2 6 7 6 4 3 2 3 3 5 4 9 4 4 8 12 13 14 15 16 19 21 22 24 25 25 25 25 25 26 25 23 17 6 16 13 13 15 15 15 17 15
5 2 1 5 5 4 4 3 2 2 5 11 8 8 3 6 8 12 14 15 15 17 20 21 23 24 24 25 25 25 26 25 23 25 19 1 8 17 12 16 17 14 16 18
3 4 6 8 2 1 7 6 6 5 6 12 18 21 21 9 7 9 14 15 15 17 20 20 22 23 24 24 24 25 24 23 20 19 21 23 19 3 13 12 20 17 17 18
2 6 8 10 8 7 12 17 17 19 21 18 23 24 17 1 6 8 10 12 15 19 21 22 23 23 24 24 25 25 24 24 21 21 23 23 22 21 15 10 18 15 17 16
1 3 2 7 8 12 24 22 21 21 24 22 26 33 4 9 9 10 10 12 15 18 19 21 22 24 24 24 24 24 25 24 21 21 21 22 26 25 23 18 19 20 20 19
4 4 2 5 4 13 17 16 12 18 23 23 26 18 15 10 10 11 11 13 13 15 16 19 21 21 22 23 21 22 22 22 21 22 22 23 24 27 26 22 22 22 22 22
7 6 3 6 7 7 8 3 9 10 12 9 8 12 11 15 13 13 17 11 11 14 16 17 18 20 21 21 22 20 22 22 24 26 27 25 19 23 28 27 22 23 23 23
19 11 4 4 6 13 12 5 5 6 5 12 6 14 17 19 16 18 12 13 11 11 12 13 14 16 18 22 22 21 24 24 26 27 27 27 24 23 27 25 20 22 26 26
13 12 11 5 4 5 2 17 11 6 2 7 5 6 13 6 6 3 9 10 11 12 13 16 16 17 20 21 19 20 23 24 27 25 22 23 23 26 26 25 21 19 24 24
8 6 16 13 4 9 16 25 13 2 2 7 8 5 12 6 8 11 9 11 12 12 15 14 16 19 19 20 19 22 21 24 20 19 21 23 23 24 23 23 23 22 22 25
6 9 6 7 7 6 22 9 5 5 9 10 13 14 21 18 16 14 12 12 13 14 16 15 15 18 19 18 19 21 22 18 18 20 22 23 23 21 20 22 22 22 20 24
4 4 3 3 3 4 8 10 14 11 10 10 11 13 15 14 16 14 12 11 13 13 14 14 15 16 18 20 18 20 19 17 16 20 23 23 23 21 21 22 21 19 20 21
8 9 4 3 5 9 9 13 13 12 13 11 12 13 15 16 14 13 12 11 12 14 14 13 14 17 19 18 18 17 16 15 17 20 20 20 23 22 21 20 20 19 18 19
4 7 4 5 7 9 12 11 10 11 12 15 14 13 13 14 13 12 12 12 13 13 13 15 15 16 18 17 19 18 17 14 17 17 16 16 16 17 20 24 21 19 22 20
6 5 3 2 3 7 5 7 8 11 11 12 14 14 13 13 13 13 14 12 13 13 13 15 15 16 16 17 18 19 17 15 13 15 14 13 13 14 15 15 17 29 31 29
Wind_Direction
177 197 210 230 214 235 257 267 270 270 276 289 287 286 288 286 281 283 292 294 291 292 318 345 2 4 354 325 279 250 235 222 205 203 200 203 204 199 198 199 188 178 185 187
200 236 235 234 232 244 258 268 282 286 272 214 281 288 285 279 276 267 286 300 311 345 356 351 351 350 357 344 347 321 261 228 210 204 205 201 203 211 201 197 196 181 184 184
214 213 158 215 245 245 246 242 260 260 295 283 286 292 270 269 250 287 353 33 28 9 353 347 349 339 336 344 337 327 314 280 215 206 196 182 164 157 181 199 197 192 183 185
225 242 242 242 246 235 261 225 243 261 297 286 163 293 290 232 102 297 13 32 12 360 352 351 344 336 333 326 328 332 320 308 248 200 195 197 199 193 196 195 202 195 188 183
216 198 160 215 229 189 241 252 258 264 268 284 195 214 280 325 343 89 33 17 15 7 357 350 347 338 327 327 327 335 323 306 290 209 200 194 197 205 196 188 186 192 179 177
243 274 221 230 244 226 307 264 273 259 199 259 219 195 277 302 263 279 341 10 10 4 357 351 349 343 334 328 326 347 327 320 313 223 205 201 200 190 173 181 187 183 180 177
345 229 78 45 124 23 20 87 284 264 200 244 137 202 254 289 299 244 355 11 10 6 3 356 353 346 337 330 330 347 331 320 314 241 211 205 205 189 188 183 185 179 178 181
184 170 41 357 90 325 321 13 204 250 237 291 321 263 256 176 84 61 62 36 16 1 2 356 351 343 333 329 327 344 339 321 318 255 217 205 199 187 178 176 182 186 188 181
157 220 108 80 256 254 343 48 307 267 275 265 248 266 240 143 34 70 39 21 7 2 346 354 349 346 332 334 336 344 331 330 327 235 216 187 177 172 174 174 175 177 181 163
167 221 3 315 130 58 83 326 319 274 273 256 260 250 255 6 351 349 14 10 359 357 350 354 350 342 339 338 341 339 341 338 323 343 185 180 173 169 169 167 170 168 162 156
140 180 221 16 246 312 347 175 213 238 242 260 278 289 33 13 353 347 4 7 11 358 357 346 346 343 341 344 346 341 339 337 337 342 332 154 152 148 155 158 160 162 151 155
60 121 173 241 292 295 150 118 112 198 261 288 278 269 67 37 26 13 5 360 9 12 1 351 348 344 347 348 350 348 347 344 345 335 330 161 140 145 156 152 154 154 142 159
168 132 88 108 93 46 121 127 133 296 237 248 262 259 125 52 51 35 15 3 358 13 6 353 351 353 350 350 351 352 351 351 348 352 354 270 150 155 171 160 148 153 155 148
140 171 204 228 268 155 281 251 256 231 242 264 251 285 299 332 31 29 36 0 356 13 9 354 355 354 353 355 354 356 356 356 356 6 15 21 11 223 191 165 143 156 156 142
146 229 230 245 261 275 268 267 263 253 249 245 266 266 275 295 80 46 46 11 5 13 8 358 358 357 357 357 357 358 0 2 5 24 28 23 16 17 39 89 128 124 116 115
89 255 225 272 270 263 278 277 270 259 254 253 254 264 203 116 89 64 38 32 17 14 5 359 1 0 1 2 1 359 3 4 10 27 32 35 33 27 30 31 71 73 81 80
178 165 58 287 341 323 293 272 272 273 258 238 232 245 150 119 92 67 52 41 19 15 6 5 3 0 1 2 2 5 6 9 18 31 34 39 45 39 33 35 51 65 69 68
185 162 181 280 340 267 246 28 330 18 35 3 227 137 129 120 102 80 58 50 28 17 12 6 2 3 5 5 7 10 18 20 26 30 35 34 43 59 53 41 40 58 62 63
209 185 202 231 223 275 293 357 326 317 14 4 52 116 129 131 103 57 57 50 42 30 18 10 8 10 13 14 8 16 24 25 30 30 31 34 31 46 60 55 38 55 66 61
179 189 177 167 236 266 338 333 320 271 197 12 2 145 152 168 91 69 52 50 38 33 26 18 11 25 25 17 12 24 28 30 27 24 26 37 40 43 57 54 50 54 63 66
119 153 198 228 283 286 351 332 318 210 11 35 35 34 152 88 85 108 81 57 44 34 28 19 24 32 30 21 21 28 26 31 23 25 33 37 39 46 49 54 47 53 56 64
158 174 179 203 214 282 358 3 51 80 67 70 62 76 94 95 92 87 73 59 45 38 32 23 31 33 25 29 32 31 28 17 26 36 39 40 41 43 45 51 50 51 59 62
52 10 103 20 99 56 13 38 47 62 80 81 86 82 95 94 85 81 73 60 53 45 38 28 30 35 29 25 31 38 24 22 31 43 43 43 42 41 41 52 50 49 51 60
6 10 95 128 56 64 53 55 56 63 80 79 81 91 92 94 90 84 72 61 56 44 39 33 42 41 36 25 26 30 22 25 35 44 44 42 50 48 46 48 52 56 46 51
341 328 46 94 122 109 64 63 70 74 82 85 76 81 89 95 85 86 76 62 55 48 40 42 41 37 31 26 26 20 20 29 41 45 47 46 45 49 58 55 51 55 57 58
358 3 12 126 354 89 79 73 87 89 88 93 97 85 75 87 91 85 74 63 58 52 37 38 37 36 28 29 30 22 20 35 48 52 47 48 52 47 50 53 53 48 54 60